Epoch 2002 Oct. 13.0 TT = JDT 2452560.5 T 2002 Oct. 1.98359 TT MPC q 0.7761866 (2000.0) P Q z -0.0010458 Peri. 105.93980 -0.03805109 -0.79781247 +/-0.0000312 Node 321.04018 -0.00846476 +0.60237554 e 1.0008118 Incl. 73.12604 +0.99923994 -0.02527788 >From 1088 observations 2002 July 27-Sept. 13, mean residual 0".64.
m1 = 7.0 + 5 logΔ + 25 log r [ ,-45] ( 〜2002年 8月17日) m1 = 8.5 + 5 logΔ + 0.5 log r [-45,-20] (2002年 8月17日〜2002年 9月11日) m1 = 2.7 + 5 logΔ - 87 log r [-20, 0] (2002年 9月11日〜2002年10月 1日) m1 = 14.5 + 5 logΔ + 20 log r [ 0, ] (2002年10月 1日〜 ) ※ 灰色の曲線は、m1 = 7.0 + 5 logΔ + 25 log r の光度曲線です。